Showing default

GONETS M 12 (M22), 40553

Orbit data source: Space-Track

GONETS M 12 (M22), 40553 is a payload satellite owned by Gonets (CIS) in LEO that was launched on Tue, 31 Mar 2015 UTC via an ROKOT launch vehicle from the Plesetsk Missile And Space Complex (PKMTR). Payload-class satellites include a variety of spacecraft equipped with specific instruments for various scientific and technological missions. These include communications satellites like Starlink; space stations such as the ISS; scientific satellites like the Hubble; Earth observation satellites from companies like Planet Labs, Umbra, and HawkEye 360; GPS; miniature CubeSats for education and research; and military/defense satellites.

Loading next visibility...
Identifier
40553, 2015-020B
Orbit
LEO
Country
Flag of CISCIS
Related business
Manufacturer
Resehetnev ISS
Mission
Operational Civil Communications
Bus & Motor
STRELA-3M, Unknown motor
Mass
225 kg wet, 225 kg dry
Launch date (UTC)
2015-03-31 (10 years ago)
Launch vehicle
ROKOT
Launch site
Plesetsk Missile And Space Complex (PKMTR)
Object type
Payload
Rocket body
Debris
Shape & HBR
Cyl + 1 Ant, 3.5 m
Radar Cross Section
1.798 m², Large (>1 m²)

Expand to show TLE details & history
Last TLE update: 11 hours ago

TLE from 11 hours ago
0 GONETS M 12 (M22)
1 40553U 15020B   25258.24440632  .00000038  00000-0  20172-3 0  9998
2 40553  82.4915 203.3226 0013603 225.1306 134.8669 12.42859780474578
Epoch: 2025-09-15T05:51Z
TLE epoch observation values (Epoch: 2025-09-15T05:51:56.706Z)
Latitude
-0.00007°
Longitude
120.88447°
Altitude
1,504.766 km
Speed
7.109 km/s
True Right ascension
13h 33m 17s
True Declination
0° 00' 00"
Sunlit
Object was in daylight at epoch
Visualization orbit readout
Latitude
Unknown
Longitude
Unknown
Altitude
Unknown
Speed
Unknown
Apparent Right ascension
Unknown
Apparent Declination
Unknown
Sunlit
N/A
Visualization observer readout
Local Sidereal Time
09:13:36
Azimuth
Unknown
Elevation
Unknown
Doppler factor
Unknown
Orbital elements
Apogee altitude
1,502.561 km
Perigee altitude
1,481.15 km
Semi-major axis
7,869.992 km
Eccentricity
0.00136
Inclination
82.4915°
RAAN
203.3226°
Arg. of periapsis
225.1306°
True anomaly
134.97725°
Mean anomaly
134.8669°
Eccentric anomaly
134.92209°
Mean motion
3.10872 °/min
Orbital period
115.8 mins
BSTAR
0.00020172
Loading maneuver chart data...
Computing Atmospheric mass density...
Loading historical data...
Loading historical data...
Loading historical data...
Loading historical data...
Loading historical data...
Loading historical data...
Loading historical data...

Documentation

Showing up to 5 results
|